Theta_e
318 325 326 327 334 337 341 338 338 341 340 343 340 337 344 349 361 370 356 351 349 356 357 352 346 344 344 346 347 347 343 343 335 333 336 335 335 336 337 342 343 343 340 339 337 335 326 325 324
324 325 324 330 337 340 341 338 339 340 340 338 337 338 340 351 357 358 355 347 350 355 356 355 345 344 344 346 348 347 346 345 335 334 336 334 336 337 337 342 346 345 341 339 336 332 324 325 326
321 323 326 331 337 339 339 338 338 340 338 338 337 337 348 357 356 356 355 349 351 354 353 356 344 343 343 345 348 348 347 345 335 335 336 335 336 338 337 340 345 345 342 331 325 325 326 327 329
320 325 326 330 336 338 338 338 341 340 338 337 336 337 350 355 356 355 353 350 352 352 352 353 343 341 342 345 348 348 347 343 335 336 337 336 336 337 337 339 341 340 331 327 323 325 328 331 333
320 326 330 332 333 335 338 337 339 338 338 337 336 338 350 356 354 353 350 349 349 349 353 350 341 340 341 345 347 347 347 343 337 338 340 338 336 336 338 339 336 332 333 328 326 329 332 334 334
321 323 328 331 331 332 334 337 336 337 337 337 337 337 348 356 353 351 349 348 347 348 354 350 341 340 341 343 346 347 347 344 342 344 342 338 336 337 338 337 334 333 334 330 326 327 330 334 334
320 322 323 326 328 330 333 335 335 335 336 337 339 342 356 357 354 353 350 347 347 349 353 350 347 344 340 341 343 345 345 344 344 344 341 337 336 337 337 336 332 332 330 327 323 324 326 328 330
318 320 322 323 325 329 331 334 332 333 336 335 343 345 354 357 357 354 352 348 348 349 351 350 347 345 345 346 341 341 342 343 344 342 337 335 336 337 337 335 332 333 331 327 324 323 324 325 326
318 318 319 321 323 324 328 332 331 331 333 335 340 338 349 357 357 355 354 350 349 347 350 347 346 343 343 344 344 337 337 337 335 336 335 336 342 342 344 338 342 335 332 329 326 322 321 322 322
318 318 318 320 322 324 325 328 330 333 331 336 340 333 352 357 357 355 354 352 349 347 348 346 344 343 343 344 346 344 343 342 342 342 344 342 340 341 339 340 338 342 337 332 329 327 325 324 330
318 318 319 319 321 323 324 326 328 329 334 335 339 334 345 353 354 353 352 351 348 347 347 346 345 345 344 344 348 344 345 344 343 342 344 341 339 341 341 344 346 345 339 338 337 340 337 335 334
317 318 318 318 319 320 322 325 327 328 333 334 335 332 334 343 348 351 351 348 348 347 347 347 347 348 346 344 347 345 346 346 346 346 346 342 342 342 342 338 339 341 339 343 339 340 340 340 339
318 317 317 317 318 319 321 324 325 327 328 334 335 332 333 334 335 336 339 340 345 348 347 347 350 351 350 348 346 347 346 347 347 348 350 349 348 347 347 344 343 343 343 342 344 343 344 345 347
318 318 317 318 317 318 319 322 323 324 327 332 334 335 334 334 334 334 334 335 332 341 350 350 351 353 353 351 348 348 349 348 348 349 350 352 351 350 349 350 349 348 346 345 345 345 346 347 347
316 317 318 318 318 317 318 317 319 324 327 329 334 334 333 336 334 332 332 334 334 331 346 352 353 354 355 354 351 351 350 350 349 349 350 353 353 351 351 349 349 347 347 348 349 349 349 350 349
315 316 317 318 317 318 318 318 318 320 326 328 329 332 334 334 333 331 330 333 333 328 330 347 352 354 357 356 354 352 352 353 351 351 350 352 354 354 353 351 349 349 351 352 352 351 350 350 349
317 316 316 316 317 317 317 317 318 320 322 327 329 331 334 335 334 331 330 331 330 331 329 334 353 355 356 358 357 356 355 355 354 353 353 353 353 353 353 351 349 352 353 352 350 347 346 344 345
318 317 316 317 317 317 317 317 318 319 321 325 328 329 331 335 334 332 329 332 330 328 328 329 346 353 355 357 359 357 356 356 354 354 353 353 353 352 354 351 351 354 353 352 346 349 346 345 345
317 318 319 318 317 317 317 317 317 318 320 321 325 329 330 332 334 331 331 327 331 328 323 331 337 344 354 355 354 353 352 351 351 350 351 351 354 353 352 352 353 354 352 347 345 345 345 342 338
317 318 320 320 319 318 318 317 318 318 319 321 323 326 327 330 331 333 332 332 331 326 322 327 334 341 350 352 351 346 345 345 346 346 354 352 352 352 352 354 350 349 345 342 344 342 339 334 331
317 319 319 320 319 321 319 319 319 318 318 320 322 323 323 326 329 333 334 331 330 325 327 326 326 343 348 349 348 350 352 348 348 347 350 353 353 352 352 353 349 340 339 333 340 339 338 332 327
318 318 318 319 321 319 320 320 319 319 319 320 321 322 324 329 329 333 335 334 328 327 327 328 335 342 352 349 353 353 350 346 344 345 345 351 353 354 354 346 339 336 332 331 330 333 330 328 326
317 319 319 319 320 321 321 322 323 322 320 321 323 325 327 325 328 334 334 330 323 325 324 325 345 337 341 352 350 347 349 343 344 344 347 349 347 342 335 334 333 331 332 327 328 329 329 327 326
318 319 320 320 320 320 321 324 324 325 326 323 324 324 324 323 332 333 325 325 324 324 327 336 343 345 348 348 349 348 345 342 338 336 334 332 331 332 330 328 329 330 331 331 330 330 331 330 328
319 321 322 321 321 320 320 323 327 329 328 326 327 328 327 325 326 327 327 325 328 327 330 335 339 342 343 341 340 339 340 338 338 336 329 329 326 325 326 330 330 330 332 333 332 332 331 332 331
320 321 321 323 321 319 319 322 326 326 324 328 328 328 327 327 327 328 329 330 330 331 331 333 334 331 331 332 331 330 331 329 329 332 332 331 329 328 328 331 331 333 334 333 333 333 332 331 332
322 321 321 322 326 325 322 325 326 326 327 328 328 328 328 328 327 327 326 326 326 326 326 326 325 324 325 325 325 324 324 324 325 324 325 323 323 325 325 328 330 330 330 330 331 333 333 333 332
320 323 324 325 331 333 327 326 326 328 328 328 329 329 328 326 325 324 323 322 321 321 320 320 321 320 320 319 319 319 320 320 320 320 321 321 322 322 322 322 323 323 324 328 330 331 332 332 332
320 324 326 327 326 329 330 331 329 329 328 329 329 327 326 325 323 322 322 320 319 319 319 318 317 317 317 317 316 317 317 317 317 318 318 318 318 319 319 319 319 319 320 321 322 326 331 332 331
320 323 326 336 332 329 331 331 326 329 327 328 328 326 325 323 322 321 320 319 318 318 317 316 315 315 315 314 314 314 315 315 314 315 315 316 316 316 316 316 316 316 316 316 318 320 320 323 327
Wind_Speed
12 15 15 13 8 8 18 19 20 2 2 3 4 8 15 8 16 6 14 11 21 24 25 27 25 21 18 18 21 23 22 21 21 21 19 18 18 18 18 17 14 12 11 10 9 8 7 8 8
10 12 15 8 11 15 15 20 14 11 6 4 10 9 9 4 17 11 15 19 24 24 25 23 26 22 18 17 19 24 23 22 21 21 19 17 17 18 18 15 14 11 9 8 7 7 8 8 8
10 13 9 11 15 18 18 17 17 9 8 6 8 5 5 6 7 13 16 22 24 24 25 23 27 23 19 17 19 23 24 22 22 21 19 18 18 18 17 15 13 10 8 6 7 7 8 7 7
11 13 9 14 23 22 25 18 13 4 5 11 6 7 6 7 2 9 20 24 23 23 25 26 28 24 20 18 19 23 23 22 21 20 18 18 18 17 16 14 12 9 7 6 6 7 7 6 5
20 10 15 19 25 26 20 22 9 10 13 7 9 11 3 8 7 16 22 23 22 23 22 27 29 26 22 20 22 24 23 22 21 20 18 17 16 16 16 13 11 9 6 5 5 6 6 5 5
11 13 18 22 26 24 23 14 14 13 16 10 10 12 2 16 15 16 20 21 21 22 21 26 28 26 23 21 22 23 23 22 21 20 18 16 15 16 15 13 10 8 7 6 6 7 8 7 7
20 16 23 25 25 25 22 18 12 12 16 11 13 12 12 14 20 16 18 19 20 21 21 23 23 24 23 22 22 22 22 21 21 19 18 16 16 16 15 13 11 9 8 8 8 9 9 10 10
16 16 27 25 23 27 20 16 11 18 17 7 6 8 2 12 24 21 18 19 20 20 20 21 21 21 20 19 22 21 21 20 20 18 17 16 16 16 15 13 12 11 9 9 9 9 10 11 12
20 17 22 29 27 23 22 13 14 20 13 6 1 7 7 6 18 16 18 19 19 20 20 21 21 21 21 20 20 22 20 20 19 17 17 17 14 14 14 12 13 11 10 10 10 10 11 12 13
20 19 29 23 24 21 24 19 12 17 14 9 7 5 1 8 12 13 13 16 19 20 20 21 21 21 21 19 18 18 17 16 16 16 16 16 15 15 15 14 14 14 13 12 11 12 12 13 12
22 24 21 24 25 20 24 19 12 22 21 17 12 6 3 7 4 8 11 16 19 19 19 21 19 20 21 19 18 19 18 17 16 17 17 17 16 15 14 13 13 13 14 11 14 13 13 13 13
24 24 23 23 21 23 21 18 22 21 21 17 12 6 6 10 4 6 10 16 18 19 19 19 20 20 20 18 18 19 19 19 18 19 19 18 16 15 14 15 14 13 13 12 13 15 13 13 13
21 22 20 21 24 23 15 22 22 24 24 11 15 11 9 10 6 6 8 13 20 20 22 22 22 21 21 16 18 18 19 19 18 18 19 18 17 15 15 14 14 13 13 14 13 14 14 14 15
20 18 19 20 20 24 22 22 24 26 26 17 18 16 13 9 7 3 5 6 20 26 23 23 23 23 22 22 16 17 17 17 17 18 19 21 18 16 15 14 14 14 14 14 14 14 14 15 16
17 20 17 21 20 21 23 27 32 23 24 25 13 19 17 10 10 1 13 11 15 9 47 17 18 21 22 22 21 18 18 18 18 18 17 18 20 16 15 15 14 15 14 13 13 13 14 15 16
16 20 19 20 21 20 20 28 27 29 27 29 22 16 21 19 15 11 12 22 21 15 15 15 15 19 19 20 20 20 18 18 19 18 18 19 19 18 16 16 15 15 14 13 15 15 15 16 17
17 17 22 20 20 20 25 31 25 25 26 24 27 20 19 16 16 12 11 19 22 18 11 12 10 15 20 19 19 19 19 19 18 18 19 19 19 18 18 16 16 14 13 14 13 13 13 14 15
17 19 16 19 18 22 26 27 25 26 25 27 26 24 21 22 19 21 20 19 18 16 12 9 12 13 14 17 18 18 18 19 19 20 19 19 18 19 18 17 16 11 13 15 13 12 13 13 16
17 14 19 14 17 19 22 25 23 25 23 30 26 21 22 24 19 27 24 22 22 8 8 9 11 14 15 17 17 18 19 19 19 20 18 18 16 16 20 20 15 12 15 13 9 11 13 15 15
19 16 14 14 13 18 21 24 23 24 26 30 22 21 23 22 23 22 20 22 16 2 13 10 10 11 13 14 15 15 16 17 17 18 14 16 18 18 20 17 16 13 13 13 11 11 13 15 15
19 19 15 16 11 14 17 23 20 22 26 28 26 25 29 23 23 20 24 25 25 2 10 9 19 8 11 13 11 11 10 13 14 14 14 16 17 17 17 18 15 11 13 13 15 11 13 14 13
20 18 16 17 16 14 6 13 21 24 24 26 25 24 19 20 20 22 25 33 21 5 15 18 13 13 8 9 5 8 11 11 12 14 15 16 17 17 15 14 14 13 13 13 13 12 14 12 14
18 17 19 16 17 18 7 6 22 12 23 25 19 21 21 18 14 23 24 24 15 9 8 22 10 17 16 12 14 15 16 15 7 10 8 9 11 13 14 13 12 14 14 15 15 13 13 14 15
20 17 15 15 15 15 21 7 9 7 13 18 20 15 1 10 7 13 12 17 14 15 12 12 14 16 17 15 17 14 12 8 8 10 9 11 12 12 13 14 14 14 16 17 17 17 18 18 18
19 16 12 13 14 15 19 15 8 5 11 18 17 9 5 3 6 5 13 11 14 14 17 16 15 11 11 13 10 7 4 4 4 3 7 7 10 11 11 14 15 16 18 20 20 20 21 20 21
20 20 15 20 13 15 17 12 10 18 14 13 13 12 10 11 10 13 12 15 16 18 17 15 12 11 9 9 8 7 4 4 2 4 2 5 8 10 12 10 11 14 17 21 22 24 25 26 25
18 20 23 18 12 7 9 14 11 14 16 16 16 15 13 14 12 14 13 16 17 17 16 16 14 10 9 9 7 6 6 6 4 4 4 6 8 11 12 13 14 17 19 22 25 27 29 28 28
17 15 13 12 9 11 7 7 5 21 19 18 16 16 14 14 15 14 13 17 16 17 15 13 11 10 9 8 7 7 5 5 5 6 8 10 12 12 15 17 19 21 23 25 27 30 31 33 34
18 11 11 16 8 11 6 5 8 12 20 19 18 16 15 14 13 12 12 15 15 14 13 10 8 8 8 8 7 7 8 9 9 11 13 14 16 17 19 21 23 26 26 27 28 29 31 34 35
18 11 13 10 7 10 10 4 10 18 18 17 18 16 14 14 13 13 11 12 11 10 11 10 9 10 10 10 11 11 13 13 13 14 16 17 20 20 22 25 27 29 29 29 29 30 32 34 34
Wind_Direction
264 275 270 266 249 232 254 243 251 139 216 170 338 278 331 10 34 75 128 139 143 144 157 162 168 172 178 182 185 183 181 176 172 166 162 158 156 155 155 150 147 146 151 151 148 146 145 147 146
262 275 260 268 245 250 239 242 239 242 260 59 275 250 255 355 82 126 125 148 147 147 155 160 169 171 176 182 183 182 182 178 174 169 164 163 164 165 163 158 153 155 158 162 159 156 153 152 152
249 258 269 236 238 245 256 228 233 197 236 263 275 250 311 40 77 149 137 152 146 149 153 163 168 170 174 180 181 179 180 179 176 173 170 170 171 171 169 168 167 168 175 180 177 169 164 162 161
225 233 246 255 244 233 252 270 314 278 245 238 267 284 107 50 115 128 147 152 148 152 154 170 169 171 174 177 177 178 180 181 179 178 178 178 177 177 176 177 176 178 186 189 184 179 177 175 180
225 252 233 235 238 256 252 249 171 238 257 228 215 253 150 106 98 132 149 153 156 154 155 164 171 172 174 177 177 181 183 184 182 183 184 186 184 182 180 181 181 181 186 194 191 193 196 202 213
217 229 241 237 240 233 251 260 263 264 272 256 255 244 233 125 133 146 153 157 158 154 153 163 173 175 177 178 182 184 186 186 187 188 190 193 192 187 187 186 189 189 195 200 203 207 210 217 226
233 224 235 243 249 240 222 245 244 273 259 262 305 247 121 154 143 152 159 163 155 156 154 161 167 175 180 183 184 188 190 190 192 193 195 196 195 193 194 192 197 202 206 210 211 216 219 224 230
228 245 244 239 247 248 235 168 217 259 266 26 311 245 26 157 153 151 163 166 159 160 157 163 167 171 176 182 187 187 190 193 196 199 201 196 194 196 201 202 209 212 216 219 222 227 233 235 240
220 241 239 241 238 248 254 199 206 226 259 236 163 352 314 170 128 153 157 169 165 169 160 168 170 173 176 179 186 189 191 196 199 200 199 194 190 201 210 209 224 234 228 229 235 239 245 248 253
224 229 238 242 252 257 257 250 217 233 203 201 206 34 320 123 149 170 167 177 176 177 168 169 175 175 178 177 182 183 189 193 193 192 195 188 195 199 203 213 223 230 236 238 242 247 250 253 253
213 241 243 242 259 256 266 245 221 236 208 217 206 110 28 18 173 185 190 185 186 181 176 172 178 175 183 181 179 187 190 193 196 197 194 196 199 200 206 209 217 228 241 238 247 245 243 244 249
228 236 241 260 262 247 263 275 255 243 245 228 146 139 84 128 340 325 317 329 178 181 185 179 182 181 193 186 185 191 194 196 198 202 199 200 207 206 210 214 221 208 218 227 230 237 235 243 252
237 246 244 244 248 254 251 244 253 256 254 190 169 164 138 111 77 67 315 313 312 184 187 187 181 186 193 202 193 198 202 199 202 200 205 206 209 208 211 219 227 226 222 226 234 240 245 249 251
235 242 249 256 234 242 243 239 241 243 254 206 192 188 190 168 117 9 331 317 315 288 189 184 182 186 191 199 205 204 205 207 210 208 209 211 215 213 218 219 226 235 239 244 244 244 250 253 259
250 258 231 240 249 236 237 239 244 246 247 246 218 214 208 182 179 58 318 312 285 239 278 174 190 189 197 199 204 204 210 218 211 218 210 210 217 222 222 227 226 230 234 241 249 257 256 259 262
242 238 246 234 231 238 253 249 232 240 237 244 243 222 239 178 211 133 300 302 308 319 333 311 200 197 201 207 206 210 214 215 224 218 217 216 217 222 218 234 233 231 232 233 236 245 250 251 259
228 235 231 246 236 220 226 247 252 250 227 240 240 235 235 202 209 185 227 282 321 329 321 292 237 225 199 211 214 214 218 223 222 225 221 210 217 220 222 227 230 228 235 246 251 261 271 276 282
229 220 238 255 220 234 237 243 244 247 246 242 230 241 236 224 208 190 189 269 300 302 304 278 280 224 219 209 216 223 223 225 231 228 227 220 210 218 216 226 233 230 234 241 242 238 264 284 292
266 241 240 242 251 241 246 239 249 239 237 244 240 230 229 237 201 198 187 226 284 309 316 289 258 256 218 213 217 220 223 223 228 232 226 220 209 220 219 226 225 223 240 249 264 260 262 268 273
242 251 255 259 252 246 247 246 243 246 236 242 233 240 243 234 243 199 175 230 262 308 325 296 264 243 220 225 233 239 228 228 228 226 201 211 213 212 213 219 241 211 234 226 238 249 264 273 276
224 238 244 260 260 270 257 263 238 233 240 237 223 228 241 230 239 214 193 215 259 332 349 306 279 240 219 233 235 233 253 242 204 222 209 212 218 213 218 222 229 230 230 247 218 234 245 265 279
219 220 247 262 271 266 292 278 226 230 229 229 229 225 227 233 238 226 192 192 204 220 199 282 256 243 235 235 245 219 237 217 222 225 216 202 210 215 214 217 221 230 235 243 238 237 244 253 266
230 225 219 233 254 268 240 232 281 252 218 218 208 218 220 231 236 214 200 181 180 174 228 260 224 232 234 210 216 215 225 222 205 228 169 189 203 210 216 223 229 233 239 249 245 249 235 248 258
219 237 249 232 237 248 255 183 249 252 297 217 194 202 256 257 173 152 144 154 159 178 187 215 217 217 201 200 212 223 253 255 196 201 187 206 217 218 227 234 236 241 245 251 253 245 245 248 258
216 222 224 227 231 238 252 197 146 127 312 240 116 117 133 145 127 163 158 164 136 167 181 181 198 183 180 170 159 165 135 113 134 177 223 258 246 237 228 217 234 248 247 249 257 257 252 252 254
208 215 225 215 220 228 213 261 143 166 215 108 103 106 113 103 105 101 97 111 119 132 155 140 142 149 148 133 124 97 70 140 182 94 350 277 285 283 296 304 281 269 264 265 265 260 257 256 251
205 217 234 255 304 252 266 152 152 146 146 133 126 119 115 109 110 101 101 100 109 110 106 110 114 101 119 108 100 84 71 57 38 6 323 286 291 286 286 289 282 276 274 271 270 267 261 258 255
240 245 247 242 199 276 225 312 166 163 154 138 134 124 121 119 113 110 111 116 115 109 103 105 111 105 88 76 57 43 22 12 347 326 312 305 298 294 290 289 287 282 278 273 269 266 264 258 256
223 182 253 265 290 252 149 232 256 267 149 146 135 132 133 129 120 113 107 102 95 95 93 86 76 73 55 42 21 11 351 342 336 322 314 308 303 297 291 287 285 279 274 271 269 268 269 267 264
253 276 192 234 252 278 292 140 141 299 135 131 132 131 127 121 118 111 107 100 93 79 71 57 34 30 16 3 356 348 337 332 327 315 308 302 297 295 291 284 279 276 275 276 274 273 271 271 271